Location: Blangy-Tronville
(49.8790°N, 2.4226°E)
Time: 03:08:31
(UTC+00:00)

Geosat - Pass Details

Date: 18 November 2025
Orbit: 758 x 760 km, 108.0° (Epoch: 04 December)

Event Time Altitude Azimuth Distance (km) Brightness Sun altitude
Exits shadow 19:05:26 59° 228° (SW) 875 4.3 -29.1°
Maximum altitude 19:05:41 60° 244° (WSW) 867 4.4 -29.1°
Drops below altitude 10° 19:10:39 10° 324° (NW) 2,302 6.9 -29.9°
Sets 19:12:58 0° 328° (NNW) 3,232 7.7 -30.3°
